Location: Armidale
(30.5016°S, 151.6662°E)
Time: 07:29:47
(UTC+10:00)

ISS - Visible Passes

Search period start: 04 August 2020 00:00
Search period end: 14 August 2020 00:00
Orbit: 418 x 420 km, 51.6° (Epoch: 04 August)

Date Brightness Start Highest point End Pass type
(mag) Time Alt. Az. Time Alt. Az. Time Alt. Az.
07 Aug -1.0 06:02:01 10° S 06:03:28 12° SSE 06:04:54 10° ESE visible
09 Aug -2.2 06:02:15 10° SSW 06:05:21 32° SE 06:08:27 10° ENE visible
10 Aug -1.4 05:15:15 11° S 05:17:39 19° SE 05:20:09 10° E visible
11 Aug -0.8 04:29:51 12° SSE 04:29:51 12° SSE 04:31:15 10° ESE visible
11 Aug -3.7 06:03:33 10° SW 06:06:56 65° NW 06:10:16 10° NE visible
12 Aug -3.3 05:17:31 25° SSW 05:19:20 61° SE 05:22:40 10° NE visible
13 Aug -1.8 04:32:19 29° ESE 04:32:19 29° ESE 04:34:43 10° ENE visible
